Location: Newark
(44.3681°N, 100.3364°W)
Time: 01:06:48
(UTC+00:00)

SR - Pass Details

Date: 27 February 2020
Orbit: 577 x 878 km, 66.7° (Epoch: 28 March)

Event Time Altitude Azimuth Distance (km) Brightness Sun altitude
Rises 04:05:41 0° 334° (NNW) 3,330 ? -38.9°
Reaches altitude 10° 04:08:47 10° 350° (N) 2,341 ? -39.4°
Enters shadow 04:09:06 11° 352° (N) 2,253 ? -39.4°
